Location: Geçitköy
(36.7327°N, 29.8010°E)
Time: 19:22:41
(UTC+00:00)

Cosmos 1833 Rocket - Pass Details

Date: 12 January 2026
Orbit: 831 x 839 km, 71.0° (Epoch: 11 February)

Event Time Altitude Azimuth Distance (km) Brightness Sun altitude
Rises 17:17:43 0° 188° (S) 3,371 6.0 -26.1°
Reaches altitude 10° 17:20:10 10° 184° (S) 2,441 5.2 -26.5°
Enters shadow 17:23:38 37° 166° (SSE) 1,281 3.5 -27.2°
